This is the latest recevied weather packets stored in our database for station/object IW4DZV-13. If no packets are shown the sender has not sent any weather packets the latest 10 day(s).
| Time | Temp. | Humidity | Pressure | Rain* | Wind** | Luminosity | Snow |
|---|---|---|---|---|---|---|---|
| 1787583624 | 29.44° C | 46% | 1014.4 hPa | 0.25 mm | - | 200 W/m² | - |
| 1787582721 | 29.44° C | 48% | 1014.5 hPa | 0.25 mm | - | 74 W/m² | - |
| 1787581820 | 29.44° C | 46% | 1014.6 hPa | 0.25 mm | - | 63 W/m² | - |
| 1787580919 | 29.44° C | 47% | 1014.7 hPa | 0.25 mm | - | 76 W/m² | - |
| 1787580021 | 29.44° C | 44% | 1014.8 hPa | 0.25 mm | - | 63 W/m² | - |
| 1787579121 | 29.44° C | 44% | 1014.9 hPa | 0.25 mm | - | 69 W/m² | - |
| 1787578214 | 30° C | 45% | 1015.3 hPa | 0.25 mm | - | 63 W/m² | - |
| 1787577314 | 30.56° C | 45% | 1015.3 hPa | 0.25 mm | - | 700 W/m² | - |
| 1787576415 | 30.56° C | 46% | 1015.5 hPa | 0.25 mm | - | 724 W/m² | - |
| 1787575522 | 30.56° C | 44% | 1015.7 hPa | 0.25 mm | - | 752 W/m² | - |
| 1787574614 | 30.56° C | 43% | 1015.7 hPa | 0.25 mm | - | 772 W/m² | - |
| 1787573706 | 30° C | 45% | 1015.7 hPa | 0.25 mm | - | 788 W/m² | - |
| 1787572806 | 30° C | 44% | 1015.8 hPa | 0.25 mm | - | 800 W/m² | - |
| 1787571904 | 30° C | 45% | 1015.8 hPa | 0.25 mm | - | 807 W/m² | - |
| 1787571003 | 30° C | 47% | 1016 hPa | 0.25 mm | - | 816 W/m² | - |
| 1787570160 | 29.44° C | 49% | 1016.1 hPa | 0.25 mm | - | 817 W/m² | - |
| 1787569259 | 29.44° C | 46% | 1016.1 hPa | 0.25 mm | - | 819 W/m² | - |
| 1787568356 | 30° C | 48% | 1016.2 hPa | 0.25 mm | - | 814 W/m² | - |
| 1787567453 | 28.89° C | 47% | 1016.3 hPa | 0.25 mm | - | 807 W/m² | - |
| 1787566551 | 28.89° C | 47% | 1016.5 hPa | 0.25 mm | - | 796 W/m² | - |
| 1787565649 | 28.89° C | 46% | 1016.5 hPa | 0.25 mm | - | 782 W/m² | - |
| 1787564760 | 28.33° C | 52% | 1016.6 hPa | 0.25 mm | - | 765 W/m² | - |
| 1787563854 | 28.33° C | 53% | 1016.9 hPa | 0.25 mm | - | 745 W/m² | - |
| 1787562938 | 27.78° C | 59% | 1016.8 hPa | 0.25 mm | - | 719 W/m² | - |
| 1787562036 | 27.22° C | 60% | 1016.9 hPa | 0.25 mm | - | 693 W/m² | - |
* Rain since midnight (hover to see other rain measurements)
** Current wind speed in m/s (hover to see current wind gust speed)